Weather in Chaves

Portugal     41°44′15″N   7°28′33″W
temp.,
°C
wind,
m/s
gust,
m/s
humid.,
%
clouds,
%
prec.,
mm/h
press.,
hPa
HPBL,
m
22 april, thu
thu2201:00+9ese1195100 0.3 101149
04:00+9sse1196100 0.1 101162
07:00+8s0096100 0.1 101220
10:00+13ssw227616 0.2 1013706
13:00+16sw225476 0.6 10131529
16:00+17s1248100 0.1 10121375
19:00+15se1162100 0.1 101214
22:00+11ssw007419 0.0 101410
23 april, fri
fri2301:00+9ene118597 0.0 101510
04:00+8se1191100 0.0 101410
07:00+8ese1190100 0.0 101417
10:00+13se2767100 0.1 1014776
13:00+16se71260100 0.3 10131706
16:00+14se297496 0.4 1012811
19:00+15sse41070100 1.3 1011600
22:00+12se1195100 4.2 101318
24 april, sat
sat2401:00+10se119729 6.4 101215
04:00+10sse2299100 2.9 101237
07:00+9ese1198100 3.6 101336
10:00+14se377859 0.1 1012848
13:00+17se6964100 0.9 10121506
16:00+19sse4759100 1.3 10101345
19:00+17ese1168100 1.9 101021
22:00+12ne1191100 2.7 101111
25 april, sun
sun2501:00+11s1197100 5.4 101110
04:00+10e1199100 2.3 101114
07:00+10e119548 2.3 101013
10:00+13ese367784 0.0 1010741
13:00+16ese246894 0.3 1009859
16:00+17se346357 0.1 10071211
19:00+16se467225 0.5 1007314
22:00+11n009163 0.7 100810
26 april, mon
mon2601:00+9se0094100 0.7 100810
04:00+9ese0196100 0.0 100710
07:00+9n0097100 0.0 100710
10:00+14s1178100 0.1 1007411
13:00+18sw226083 1.8 10051377
16:00+17wnw236494 2.2 10041140
19:00+15nw2482100 5.0 1005173
22:00+11wnw229294 1.3 100617